Volver al catálogo

CZ-6A DEB

ActivoPO
NORAD 60966·DEBRIS·🇨🇳 China

Lanzado Aug 6, 2024 desde Taiyuan Satellite Launch Center

Loading…

Próximos Pases (próximas 24 horas)

TLE

ActualizadoSource: Space-Track

Época: Sep 14, 2026, 08:04 UTC

1 60966U 24140LR  26257.33679845  .00001298  00000-0  34750-3 0  9997
2 60966  88.8808 249.9416 0069931   0.1041   0.0165 14.46271430109103

Sigue CZ-6A DEB en tiempo real con AllMySat

Download on the App Store